Starlink 32558

operational
NORAD ID: 62169 Int'l Des: 2024-225 Owner: SPXS Country: US Constellation: starlink
LEOCIRCULAR

Über Starlink 32558

Beschreibung wird geladen...

Live-Position

3D-Globus wird geladen...

Nächste Überflüge

Höhenverlauf

Altitude vs Time

uPlot chart will show altitude changes over time

Zweizeiliger Elementsatz

1 62169U 24225G 25305.51037238 .00123873 00000-0 10118-1 0 9999
2 62169 70.0031 127.6894 0004658 272.5351 87.5275 14.98663756 50679
Epoch: 1. Nov. 2025 • Age: 15 hours

Aktueller Status

Höhe 585.1 km
Geschwindigkeit 7.57 km/s
Subsatellitenpunkt 68.96°N, 147.8°E
Startdatum 30. Nov. 2024
Alter 0.9 years
Typ internet

Technische Details

Klassifizierung Payload
Masse 730.00 kg
Trockenmasse 700.00 kg
Gesamtmasse 730.00 kg
Länge 0.30 m
Durchmesser 4.10 m
Spannweite 29.00 m
Form Box + pan
Hersteller SPXS
Bus-Typ Starlink V2M
Phasenstatus In Orbit
Besitzer/Staat SPXS/US

Große Konstellationen

Loading constellations...